This demonstration page uses our WeatherBlox Daily Observations layout. Learn more.

39.29038, -76.61219

Hourly Observations for November 27, 2019

Temp ( °F °C ) Dew Point ( °F °C ) Humidity (%) Winds ( mph kmh ) Pressure ( in mb ) Visibility ( mi km ) Precip ( " mm )
12:54 am 00:54 undefined 47 8.3 42 5.6 83 83 undefined N/A 30.03 1017 N/A 0 0
1:54 am 01:54 undefined 47 8.3 42 5.6 83 83 undefined N/A 30.01 1016 N/A 0 0
2:54 am 02:54 undefined 46 7.8 43 6.1 89 89 undefined N/A 30 1016 N/A 0 0
3:54 am 03:54 undefined 47 8.3 43 6.1 86 86 undefined N/A 29.99 1016 N/A 0 0
4:54 am 04:54 undefined 47 8.3 43 6.1 86 86 undefined N/A 29.98 1015 N/A 0 0
5:54 am 05:54 undefined 47 8.3 43 6.1 86 86 undefined N/A 29.97 1015 N/A 0 0
6:54 am 06:54 undefined 48 8.9 44 6.7 86 86 undefined N/A 29.98 1015 N/A 0 0
7:54 am 07:54 undefined 48 8.9 44 6.7 86 86 undefined N/A 29.95 1014 N/A 0 0
8:54 am 08:54 undefined 50 10 46 7.8 86 86 undefined N/A 29.93 1013 N/A 0 0
9:54 am 09:54 undefined 52 11.1 46 7.8 80 80 undefined N/A 29.93 1014 N/A 0 0
10:54 am 10:54 undefined 55 12.8 46 7.8 72 72 undefined N/A 29.88 1012 N/A 0 0
11:54 am 11:54 undefined 56 13.3 45 7.2 67 67 undefined N/A 29.81 1010 N/A 0 0
12:54 pm 12:54 undefined 59 15 45 7.2 60 60 undefined N/A 29.74 1007 N/A 0 0
1:54 pm 13:54 undefined 58 14.4 47 8.3 67 67 undefined N/A 29.69 1006 N/A 0 0
2:54 pm 14:54 undefined 59 15 49 9.4 69 69 undefined N/A 29.67 1005 N/A 0 0
3:54 pm 15:54 undefined 59 15 50 10 72 72 undefined N/A 29.65 1004 N/A 0 0
4:54 pm 16:54 undefined 58 14.4 50 10 75 75 undefined N/A 29.63 1003 N/A 0 0
5:54 pm 17:54 undefined 57 13.9 50 10 78 78 undefined N/A 29.62 1003 N/A 0 0
6:54 pm 18:54 undefined 57 13.9 50 10 78 78 undefined N/A 29.65 1004 N/A 0 0
7:54 pm 19:54 undefined 57 13.9 50 10 78 78 undefined N/A 29.67 1005 N/A 0 0
8:54 pm 20:54 undefined 57 13.9 50 10 78 78 undefined N/A 29.69 1006 N/A 0 0
9:54 pm 21:54 undefined 58 14.4 33 0.6 39 39 undefined N/A 29.72 1007 N/A 0 0
10:54 pm 22:54 undefined 56 13.3 29 -1.7 36 36 undefined N/A 29.76 1008 N/A 0 0
11:54 pm 23:54 undefined 54 12.2 26 -3.3 34 34 undefined N/A 29.79 1009 N/A 0 0

Powered by AerisWeather